| time (UTC) | temp F | wind direction | speed MPH | gust MPH | rain 1hr in | rain 24hr in | rain mn in | humidity % | barometer mb |
| 20260506231938 | 47 | 165 | 2.0 | 5.0 | 0.00 | 0.95 | 0.00 | 100 | 1014.8 |
| 20260506231436 | 47 | 157 | 3.0 | 5.0 | 0.05 | 0.94 | 0.00 | 100 | 1014.8 |
| 20260506230935 | 47 | 225 | 1.0 | 3.0 | 0.05 | 0.93 | 0.00 | 100 | 1014.7 |
| 20260506225933 | 47 | 179 | 2.0 | 4.0 | 0.05 | 0.93 | 0.00 | 100 | 1014.8 |
| 20260506225431 | 47 | 203 | 1.0 | 5.0 | 0.05 | 0.93 | 0.00 | 100 | 1014.6 |
| 20260506224930 | 47 | 179 | 1.0 | 5.0 | 0.04 | 0.92 | 0.00 | 100 | 1014.7 |
| 20260506223927 | 47 | 189 | 2.0 | 5.0 | 0.02 | 0.91 | 0.00 | 100 | 1014.7 |
| 20260506223426 | 47 | 167 | 2.0 | 5.0 | 0.02 | 0.91 | 0.00 | 100 | 1014.6 |
| 20260506222924 | 47 | 166 | 2.0 | 8.0 | 0.01 | 0.90 | 0.00 | 100 | 1014.7 |
| 20260506222423 | 47 | 185 | 3.0 | 8.0 | 0.01 | 0.90 | 0.00 | 100 | 1014.6 |
| 20260506221922 | 47 | 196 | 2.0 | 6.0 | 0.00 | 0.89 | 0.00 | 100 | 1014.6 |
| 20260506221421 | 47 | 164 | 2.0 | 5.0 | 0.00 | 0.89 | 0.00 | 100 | 1014.5 |
| 20260506220417 | 47 | 174 | 3.0 | 6.0 | 0.00 | 0.89 | 0.00 | 100 | 1014.3 |
| 20260506215916 | 47 | 165 | 3.0 | 7.0 | 0.00 | 0.89 | 0.00 | 100 | 1014.3 |
| 20260506214911 | 47 | 177 | 3.0 | 7.0 | 0.00 | 0.89 | 0.00 | 100 | 1014.3 |
| 20260506213407 | 47 | 212 | 2.0 | 6.0 | 0.00 | 0.89 | 0.00 | 100 | 1014.2 |
| 20260506212906 | 47 | 172 | 3.0 | 6.0 | 0.00 | 0.89 | 0.00 | 100 | 1014.2 |
| 20260506212405 | 47 | 190 | 1.0 | 4.0 | 0.00 | 0.89 | 0.00 | 100 | 1014.2 |
| 20260506211904 | 47 | 213 | 1.0 | 6.0 | 0.00 | 0.89 | 0.00 | 100 | 1014.2 |
| 20260506210900 | 47 | 173 | 3.0 | 6.0 | 0.00 | 0.89 | 0.00 | 100 | 1014.2 |
| 20260506210400 | 47 | 167 | 3.0 | 7.0 | 0.00 | 0.89 | 0.00 | 100 | 1014.2 |
| 20260506205356 | 47 | 171 | 3.0 | 6.0 | 0.00 | 0.89 | 0.00 | 100 | 1014.1 |
| 20260506204353 | 47 | 171 | 3.0 | 5.0 | 0.00 | 0.89 | 0.00 | 100 | 1014.2 |
| 20260506203852 | 47 | 212 | 1.0 | 3.0 | 0.00 | 0.89 | 0.00 | 100 | 1014.0 |
| 20260506203351 | 47 | 195 | 1.0 | 2.0 | 0.00 | 0.89 | 0.00 | 100 | 1014.1 |
| 20260506202849 | 47 | 234 | 1.0 | 6.0 | 0.00 | 0.89 | 0.00 | 100 | 1014.1 |
| 20260506201846 | 46 | 175 | 3.0 | 6.0 | 0.00 | 0.89 | 0.00 | 100 | 1013.9 |
| 20260506201345 | 46 | 213 | 1.0 | 4.0 | 0.02 | 0.89 | 0.00 | 100 | 1014.0 |
| 20260506200844 | 46 | 235 | 1.0 | 4.0 | 0.02 | 0.89 | 0.00 | 100 | 1013.8 |
| 20260506200343 | 46 | 168 | 2.0 | 4.0 | 0.02 | 0.89 | 0.00 | 100 | 1013.9 |
| 20260506195340 | 46 | 164 | 1.0 | 2.0 | 0.02 | 0.89 | 0.00 | 100 | 1013.7 |
| 20260506194838 | 46 | 251 | 0.0 | 3.0 | 0.02 | 0.89 | 0.00 | 100 | 1013.7 |
| 20260506193835 | 47 | 275 | 0.0 | 3.0 | 0.01 | 0.88 | 0.00 | 100 | 1013.6 |
| 20260506193334 | 47 | 252 | 1.0 | 4.0 | 0.01 | 0.88 | 0.00 | 100 | 1013.6 |
| 20260506192833 | 47 | 206 | 1.0 | 4.0 | 0.01 | 0.88 | 0.00 | 100 | 1013.5 |
| 20260506191831 | 47 | 173 | 2.0 | 4.0 | 0.00 | 0.87 | 0.00 | 100 | 1013.4 |
| 20260506191330 | 47 | 170 | 2.0 | 4.0 | 0.02 | 0.87 | 0.00 | 100 | 1013.5 |
| 20260506190828 | 47 | 171 | 2.0 | 4.0 | 0.02 | 0.87 | 0.00 | 100 | 1013.3 |
| 20260506190327 | 47 | 170 | 2.0 | 6.0 | 0.02 | 0.87 | 0.00 | 100 | 1013.3 |
| 20260506185826 | 47 | 167 | 2.0 | 6.0 | 0.01 | 0.86 | 0.00 | 100 | 1013.3 |
| 20260506185325 | 47 | 169 | 2.0 | 7.0 | 0.01 | 0.86 | 0.00 | 100 | 1013.3 |
| 20260506184824 | 47 | 174 | 2.0 | 7.0 | 0.01 | 0.86 | 0.00 | 100 | 1013.2 |
| 20260506184323 | 47 | 171 | 3.0 | 7.0 | 0.01 | 0.86 | 0.00 | 100 | 1013.2 |
| 20260506183821 | 47 | 163 | 4.0 | 7.0 | 0.00 | 0.85 | 0.00 | 100 | 1013.1 |
| 20260506183320 | 47 | 171 | 4.0 | 7.0 | 0.00 | 0.85 | 0.00 | 100 | 1013.1 |
| 20260506182819 | 47 | 167 | 3.0 | 7.0 | 0.00 | 0.85 | 0.00 | 100 | 1013.1 |
| 20260506182316 | 47 | 165 | 3.0 | 8.0 | 0.00 | 0.85 | 0.00 | 100 | 1013.2 |
| 20260506181815 | 47 | 170 | 3.0 | 8.0 | 0.00 | 0.85 | 0.00 | 100 | 1013.0 |
| 20260506181314 | 47 | 168 | 4.0 | 7.0 | 0.03 | 0.85 | 0.00 | 100 | 1013.0 |
| 20260506180813 | 47 | 164 | 3.0 | 7.0 | 0.03 | 0.85 | 0.00 | 100 | 1012.9 |
| 20260506180312 | 47 | 161 | 4.0 | 6.0 | 0.02 | 0.84 | 0.00 | 100 | 1012.8 |
| 20260506175811 | 47 | 159 | 3.0 | 6.0 | 0.02 | 0.84 | 0.00 | 100 | 1012.8 |
| 20260506175310 | 47 | 167 | 3.0 | 8.0 | 0.01 | 0.83 | 0.00 | 100 | 1012.8 |
| 20260506174809 | 47 | 157 | 3.0 | 8.0 | 0.01 | 0.83 | 0.00 | 100 | 1012.7 |
| 20260506174308 | 47 | 154 | 4.0 | 8.0 | 0.01 | 0.83 | 0.00 | 100 | 1012.7 |
| 20260506173807 | 47 | 196 | 2.0 | 8.0 | 0.00 | 0.82 | 0.00 | 100 | 1012.7 |
| 20260506173306 | 47 | 162 | 3.0 | 8.0 | 0.00 | 0.82 | 0.00 | 100 | 1012.7 |
| 20260506172804 | 47 | 163 | 4.0 | 8.0 | 0.00 | 0.82 | 0.00 | 100 | 1012.7 |
| 20260506172306 | 47 | 159 | 3.0 | 6.0 | 0.00 | 0.82 | 0.00 | 100 | 1012.6 |
| 20260506171801 | 47 | 164 | 3.0 | 10.0 | 0.00 | 0.82 | 0.00 | 100 | 1012.5 |
| 20260506171300 | 47 | 162 | 4.0 | 10.0 | 0.06 | 0.82 | 0.00 | 100 | 1012.5 |
| 20260506170758 | 47 | 150 | 3.0 | 8.0 | 0.06 | 0.82 | 0.00 | 100 | 1012.4 |
| 20260506170257 | 47 | 158 | 4.0 | 9.0 | 0.06 | 0.82 | 0.00 | 100 | 1012.3 |
| 20260506165755 | 47 | 176 | 3.0 | 9.0 | 0.05 | 0.81 | 0.00 | 100 | 1012.4 |
| 20260506165254 | 47 | 173 | 4.0 | 8.0 | 0.05 | 0.81 | 0.00 | 100 | 1012.4 |
| 20260506164752 | 47 | 175 | 3.0 | 9.0 | 0.05 | 0.81 | 0.00 | 100 | 1012.4 |
| 20260506164251 | 48 | 165 | 5.0 | 10.0 | 0.05 | 0.81 | 0.00 | 100 | 1012.5 |
| 20260506163750 | 48 | 242 | 1.0 | 11.0 | 0.04 | 0.80 | 0.00 | 100 | 1012.5 |
| 20260506163248 | 48 | 222 | 2.0 | 11.0 | 0.04 | 0.80 | 0.00 | 100 | 1012.5 |
| 20260506162747 | 48 | 161 | 3.0 | 8.0 | 0.02 | 0.78 | 0.00 | 100 | 1012.5 |
| 20260506162246 | 49 | 171 | 2.0 | 10.0 | 0.00 | 0.76 | 0.00 | 100 | 1012.4 |
| 20260506161745 | 50 | 176 | 4.0 | 11.0 | 0.00 | 0.76 | 0.00 | 100 | 1012.3 |
| 20260506161241 | 50 | 270 | 4.0 | 11.0 | 0.03 | 0.75 | 0.00 | 100 | 1012.2 |
| 20260506160740 | 51 | 174 | 4.0 | 9.0 | 0.02 | 0.74 | 0.00 | 100 | 1011.8 |
| 20260506155737 | 51 | 192 | 4.0 | 11.0 | 0.02 | 0.74 | 0.00 | 100 | 1011.8 |
| 20260506155236 | 51 | 172 | 4.0 | 13.0 | 0.02 | 0.74 | 0.00 | 100 | 1011.7 |
| 20260506154735 | 51 | 168 | 5.0 | 13.0 | 0.02 | 0.74 | 0.00 | 100 | 1011.7 |
| 20260506154234 | 51 | 176 | 3.0 | 8.0 | 0.02 | 0.74 | 0.00 | 100 | 1011.7 |
| 20260506153733 | 51 | 157 | 3.0 | 8.0 | 0.01 | 0.73 | 0.00 | 100 | 1011.7 |
| 20260506153231 | 51 | 166 | 3.0 | 8.0 | 0.01 | 0.73 | 0.00 | 100 | 1011.6 |
| 20260506152730 | 51 | 169 | 3.0 | 6.0 | 0.01 | 0.73 | 0.00 | 100 | 1011.6 |
| 20260506152229 | 51 | 175 | 3.0 | 6.0 | 0.00 | 0.72 | 0.00 | 100 | 1011.6 |
| 20260506151727 | 51 | 167 | 2.0 | 6.0 | 0.00 | 0.72 | 0.00 | 100 | 1011.5 |
| 20260506151226 | 51 | 161 | 2.0 | 5.0 | 0.02 | 0.72 | 0.00 | 100 | 1011.5 |
| 20260506150725 | 51 | 171 | 2.0 | 5.0 | 0.02 | 0.72 | 0.00 | 100 | 1011.5 |
| 20260506150224 | 51 | 166 | 3.0 | 5.0 | 0.01 | 0.72 | 0.00 | 100 | 1011.5 |
| 20260506145723 | 51 | 163 | 2.0 | 6.0 | 0.01 | 0.72 | 0.00 | 100 | 1011.5 |
| 20260506145221 | 51 | 162 | 2.0 | 6.0 | 0.01 | 0.72 | 0.00 | 100 | 1011.5 |
| 20260506144720 | 51 | 170 | 3.0 | 6.0 | 0.00 | 0.71 | 0.00 | 100 | 1011.6 |
| 20260506144219 | 52 | 173 | 2.0 | 6.0 | 0.00 | 0.71 | 0.00 | 100 | 1011.6 |
| 20260506143718 | 52 | 158 | 2.0 | 4.0 | 0.00 | 0.71 | 0.00 | 100 | 1011.6 |
| 20260506142214 | 51 | 181 | 2.0 | 8.0 | 0.00 | 0.71 | 0.00 | 100 | 1011.7 |
| 20260506141714 | 51 | 155 | 4.0 | 10.0 | 0.00 | 0.71 | 0.00 | 100 | 1011.7 |
| 20260506141212 | 51 | 169 | 4.0 | 12.0 | 0.01 | 0.71 | 0.00 | 100 | 1011.7 |
| 20260506140712 | 52 | 186 | 3.0 | 12.0 | 0.01 | 0.71 | 0.00 | 100 | 1011.7 |
| 20260506135710 | 52 | 194 | 4.0 | 9.0 | 0.00 | 0.70 | 0.00 | 100 | 1011.6 |
| 20260506134707 | 52 | 177 | 3.0 | 10.0 | 0.00 | 0.70 | 0.00 | 100 | 1011.7 |
| 20260506134205 | 52 | 166 | 3.0 | 12.0 | 0.00 | 0.70 | 0.00 | 100 | 1011.7 |
| 20260506133202 | 52 | 172 | 5.0 | 11.0 | 0.00 | 0.70 | 0.00 | 100 | 1011.6 |
| 20260506132701 | 52 | 170 | 3.0 | 12.0 | 0.00 | 0.70 | 0.00 | 100 | 1011.6 |
| 20260506132200 | 52 | 169 | 6.0 | 13.0 | 0.00 | 0.70 | 0.00 | 100 | 1011.6 |
| 20260506131658 | 52 | 171 | 5.0 | 13.0 | 0.00 | 0.70 | 0.00 | 100 | 1011.6 |
| 20260506131155 | 52 | 167 | 5.0 | 15.0 | 0.01 | 0.70 | 0.00 | 100 | 1011.6 |
| 20260506130655 | 52 | 159 | 5.0 | 15.0 | 0.01 | 0.70 | 0.00 | 100 | 1011.6 |
| 20260506130154 | 53 | 183 | 5.0 | 12.0 | 0.01 | 0.70 | 0.00 | 100 | 1011.6 |
| 20260506125653 | 53 | 194 | 3.0 | 12.0 | 0.01 | 0.70 | 0.00 | 100 | 1011.6 |
| 20260506125152 | 53 | 173 | 5.0 | 12.0 | 0.01 | 0.70 | 0.00 | 100 | 1011.5 |
| 20260506124650 | 52 | 165 | 5.0 | 12.0 | 0.01 | 0.70 | 0.00 | 100 | 1011.5 |
| 20260506124148 | 52 | 166 | 5.0 | 15.0 | 0.01 | 0.70 | 0.00 | 100 | 1011.5 |
| 20260506123646 | 51 | 168 | 6.0 | 14.0 | 0.01 | 0.70 | 0.00 | 100 | 1011.6 |
| 20260506123145 | 51 | 167 | 6.0 | 12.0 | 0.01 | 0.70 | 0.00 | 100 | 1011.5 |
| 20260506122644 | 51 | 176 | 5.0 | 14.0 | 0.01 | 0.70 | 0.00 | 100 | 1011.6 |
| 20260506122144 | 51 | 169 | 5.0 | 11.0 | 0.00 | 0.69 | 0.00 | 100 | 1011.6 |
| 20260506121642 | 50 | 172 | 4.0 | 11.0 | 0.00 | 0.69 | 0.00 | 100 | 1011.5 |
| 20260506121141 | 50 | 171 | 5.0 | 12.0 | 0.08 | 0.68 | 0.00 | 100 | 1011.5 |
| 20260506120640 | 50 | 166 | 4.0 | 12.0 | 0.07 | 0.67 | 0.00 | 100 | 1011.6 |
| 20260506115638 | 50 | 165 | 6.0 | 11.0 | 0.05 | 0.65 | 0.00 | 100 | 1011.5 |
| 20260506115136 | 50 | 198 | 4.0 | 8.0 | 0.05 | 0.65 | 0.00 | 100 | 1011.5 |
| 20260506114635 | 50 | 216 | 2.0 | 9.0 | 0.04 | 0.63 | 0.00 | 100 | 1011.5 |
| 20260506114134 | 50 | 172 | 3.0 | 10.0 | 0.03 | 0.62 | 0.00 | 100 | 1011.5 |
| 20260506113632 | 50 | 166 | 3.0 | 11.0 | 0.02 | 0.62 | 0.00 | 100 | 1011.4 |
| 20260506113130 | 50 | 170 | 3.0 | 12.0 | 0.01 | 0.61 | 0.00 | 100 | 1011.3 |
| 20260506112126 | 50 | 174 | 4.0 | 12.0 | 0.00 | 0.60 | 0.00 | 100 | 1011.4 |
| 20260506111625 | 50 | 163 | 5.0 | 12.0 | 0.00 | 0.60 | 0.00 | 100 | 1011.3 |
| 20260506111123 | 50 | 164 | 4.0 | 12.0 | 0.09 | 0.58 | 0.00 | 100 | 1011.5 |
| 20260506110621 | 51 | 174 | 4.0 | 9.0 | 0.09 | 0.58 | 0.00 | 100 | 1011.4 |
| 20260506110119 | 51 | 190 | 4.0 | 8.0 | 0.08 | 0.57 | 0.00 | 100 | 1011.4 |
| 20260506105117 | 50 | 178 | 2.0 | 7.0 | 0.07 | 0.56 | 0.00 | 100 | 1011.4 |
| 20260506104616 | 50 | 234 | 1.0 | 3.0 | 0.07 | 0.56 | 0.00 | 100 | 1011.3 |
| 20260506104115 | 50 | 304 | 0.0 | 6.0 | 0.06 | 0.55 | 0.00 | 100 | 1011.4 |
| 20260506103614 | 50 | 127 | 2.0 | 6.0 | 0.05 | 0.54 | 0.00 | 100 | 1011.4 |
| 20260506103113 | 50 | 219 | 1.0 | 3.0 | 0.05 | 0.53 | 0.00 | 100 | 1011.4 |
| 20260506102612 | 49 | 178 | 1.0 | 3.0 | 0.04 | 0.53 | 0.00 | 100 | 1011.4 |
| 20260506102111 | 49 | 234 | 1.0 | 6.0 | 0.01 | 0.50 | 0.00 | 100 | 1011.3 |
| 20260506101610 | 49 | 347 | 1.0 | 6.0 | 0.00 | 0.49 | 0.00 | 100 | 1011.2 |
| 20260506101109 | 49 | 257 | 1.0 | 6.0 | 0.22 | 0.45 | 0.00 | 100 | 1011.2 |
| 20260506100606 | 49 | 183 | 1.0 | 7.0 | 0.21 | 0.44 | 0.00 | 100 | 1011.0 |
| 20260506095601 | 49 | 172 | 3.0 | 7.0 | 0.17 | 0.41 | 0.00 | 100 | 1010.9 |
| 20260506095100 | 49 | 164 | 3.0 | 6.0 | 0.14 | 0.38 | 0.00 | 100 | 1010.7 |
| 20260506094559 | 49 | 216 | 1.0 | 8.0 | 0.11 | 0.34 | 0.00 | 100 | 1010.7 |
| 20260506094057 | 49 | 245 | 2.0 | 9.0 | 0.08 | 0.32 | 0.00 | 100 | 1010.7 |
| 20260506093556 | 49 | 167 | 4.0 | 9.0 | 0.05 | 0.29 | 0.00 | 100 | 1010.5 |
| 20260506092053 | 50 | 160 | 4.0 | 10.0 | 0.01 | 0.24 | 0.00 | 100 | 1010.4 |
| 20260506091549 | 50 | 218 | 2.0 | 10.0 | 0.00 | 0.24 | 0.00 | 100 | 1010.4 |
| 20260506091045 | 50 | 166 | 4.0 | 10.0 | 0.11 | 0.22 | 0.00 | 100 | 1010.3 |
| 20260506090539 | 50 | 199 | 4.0 | 12.0 | 0.11 | 0.22 | 0.00 | 100 | 1010.2 |
| 20260506090035 | 50 | 170 | 5.0 | 11.0 | 0.10 | 0.21 | 0.00 | 100 | 1010.1 |
| 20260506085531 | 50 | 197 | 3.0 | 10.0 | 0.09 | 0.20 | 0.00 | 100 | 1010.1 |
| 20260506085031 | 50 | 183 | 3.0 | 10.0 | 0.07 | 0.18 | 0.00 | 100 | 1010.0 |
| 20260506084529 | 50 | 205 | 3.0 | 12.0 | 0.07 | 0.18 | 0.00 | 100 | 1009.9 |
| 20260506084020 | 50 | 189 | 5.0 | 13.0 | 0.05 | 0.16 | 0.00 | 100 | 1009.9 |
| 20260506083017 | 50 | 185 | 3.0 | 11.0 | 0.04 | 0.14 | 0.00 | 100 | 1009.8 |
| 20260506082516 | 50 | 172 | 4.0 | 9.0 | 0.03 | 0.14 | 0.00 | 100 | 1009.7 |
| 20260506082016 | 50 | 158 | 3.0 | 10.0 | 0.01 | 0.12 | 0.00 | 100 | 1009.7 |
| 20260506081515 | 50 | 211 | 3.0 | 11.0 | 0.00 | 0.11 | 0.00 | 100 | 1009.6 |
| 20260506081013 | 50 | 172 | 5.0 | 11.0 | 0.08 | 0.09 | 0.00 | 100 | 1009.6 |
| 20260506080513 | 51 | 169 | 3.0 | 9.0 | 0.06 | 0.07 | 0.00 | 100 | 1009.5 |
| 20260506072503 | 52 | 278 | 0.0 | 2.0 | 0.01 | 0.02 | 0.00 | 100 | 1009.2 |
| 20260506072003 | 52 | 259 | 1.0 | 3.0 | 0.00 | 0.01 | 0.00 | 100 | 1009.0 |
| 20260506071502 | 52 | 316 | 0.0 | 3.0 | 0.00 | 0.01 | 0.00 | 100 | 1008.9 |
| 20260506061947 | 52 | 210 | 0.0 | 4.0 | 0.00 | 0.00 | 0.00 | 100 | 1009.1 |
| 20260506061446 | 51 | 170 | 2.0 | 4.0 | 0.00 | 0.00 | 0.00 | 100 | 1009.1 |
| 20260506060444 | 51 | 131 | 0.0 | 5.0 | 0.00 | 0.00 | 0.00 | 100 | 1009.1 |
| 20260506050415 | 49 | 216 | 1.0 | 3.0 | 0.00 | 0.17 | 0.00 | 100 | 1009.2 |
| 20260506044912 | 49 | 243 | 0.0 | 5.0 | 0.00 | 0.17 | 0.00 | 100 | 1009.2 |
| 20260506043909 | 49 | 244 | 0.0 | 3.0 | 0.00 | 0.17 | 0.00 | 100 | 1009.1 |
| 20260506043407 | 49 | 210 | 1.0 | 4.0 | 0.00 | 0.17 | 0.00 | 100 | 1009.1 |
| 20260506042906 | 48 | 196 | 1.0 | 4.0 | 0.00 | 0.17 | 0.00 | 100 | 1009.1 |
| 20260506042404 | 48 | 169 | 1.0 | 3.0 | 0.00 | 0.17 | 0.00 | 100 | 1009.1 |
| 20260506041902 | 48 | 184 | 1.0 | 2.0 | 0.00 | 0.17 | 0.00 | 100 | 1009.2 |
| 20260506041401 | 48 | 179 | 1.0 | 4.0 | 0.00 | 0.17 | 0.00 | 100 | 1009.2 |
| 20260506040859 | 48 | 176 | 2.0 | 4.0 | 0.00 | 0.17 | 0.00 | 100 | 1009.1 |
| 20260506040358 | 48 | 183 | 1.0 | 3.0 | 0.00 | 0.17 | 0.00 | 100 | 1009.2 |
| 20260506035856 | 48 | 169 | 2.0 | 3.0 | 0.00 | 0.17 | 0.00 | 100 | 1009.1 |
| 20260506035355 | 48 | 164 | 1.0 | 3.0 | 0.00 | 0.17 | 0.00 | 100 | 1009.0 |
| 20260506034853 | 48 | 176 | 0.0 | 3.0 | 0.00 | 0.17 | 0.00 | 100 | 1009.0 |
| 20260506034352 | 48 | 170 | 1.0 | 3.0 | 0.00 | 0.17 | 0.00 | 100 | 1009.1 |
| 20260506033851 | 48 | 158 | 1.0 | 2.0 | 0.00 | 0.17 | 0.00 | 100 | 1009.1 |
| 20260506033350 | 48 | 175 | 1.0 | 3.0 | 0.00 | 0.17 | 0.00 | 100 | 1009.2 |
| 20260506032848 | 49 | 199 | 0.0 | 3.0 | 0.00 | 0.17 | 0.00 | 100 | 1009.1 |
| 20260506032347 | 49 | 171 | 2.0 | 3.0 | 0.00 | 0.17 | 0.00 | 100 | 1009.2 |
| 20260506030843 | 49 | 167 | 2.0 | 3.0 | 0.00 | 0.17 | 0.00 | 100 | 1009.3 |
| 20260506030341 | 49 | 175 | 1.0 | 4.0 | 0.00 | 0.17 | 0.00 | 100 | 1009.5 |
| 20260506025840 | 49 | 174 | 2.0 | 6.0 | 0.00 | 0.17 | 0.00 | 100 | 1009.6 |
| 20260506025338 | 49 | 167 | 3.0 | 6.0 | 0.00 | 0.17 | 0.00 | 100 | 1009.7 |
| 20260506024836 | 49 | 174 | 3.0 | 4.0 | 0.00 | 0.17 | 0.00 | 100 | 1009.6 |
| 20260506023331 | 48 | 161 | 1.0 | 3.0 | 0.00 | 0.17 | 0.00 | 100 | 1009.7 |
| 20260506022831 | 49 | 161 | 1.0 | 3.0 | 0.00 | 0.17 | 0.00 | 100 | 1009.8 |
| 20260506022330 | 49 | 163 | 0.0 | 3.0 | 0.00 | 0.17 | 0.00 | 100 | 1009.8 |
| 20260506021828 | 49 | 262 | 1.0 | 3.0 | 0.00 | 0.17 | 0.00 | 100 | 1009.8 |
| 20260506021328 | 49 | 178 | 2.0 | 3.0 | 0.00 | 0.17 | 0.00 | 100 | 1009.9 |
| 20260506020826 | 49 | 164 | 1.0 | 2.0 | 0.00 | 0.17 | 0.00 | 100 | 1009.9 |
| 20260506020326 | 49 | 173 | 0.0 | 1.0 | 0.00 | 0.17 | 0.00 | 100 | 1009.9 |
| 20260506015823 | 49 | 277 | 0.0 | 1.0 | 0.00 | 0.17 | 0.00 | 100 | 1010.0 |
| 20260506014819 | 49 | 165 | 1.0 | 2.0 | 0.00 | 0.17 | 0.00 | 100 | 1010.1 |
| 20260506014317 | 49 | 224 | 0.0 | 2.0 | 0.00 | 0.17 | 0.00 | 100 | 1010.2 |
| 20260506013817 | 49 | 250 | 0.0 | 3.0 | 0.00 | 0.17 | 0.00 | 100 | 1010.2 |
| 20260506013316 | 49 | 174 | 1.0 | 4.0 | 0.00 | 0.17 | 0.00 | 100 | 1010.2 |
| 20260506012815 | 49 | 200 | 0.0 | 4.0 | 0.00 | 0.17 | 0.00 | 100 | 1010.3 |
| 20260506012313 | 49 | 170 | 1.0 | 3.0 | 0.00 | 0.17 | 0.00 | 100 | 1010.3 |
| 20260506011812 | 49 | 189 | 0.0 | 2.0 | 0.00 | 0.17 | 0.00 | 100 | 1010.3 |
| 20260506011312 | 49 | 254 | 0.0 | 2.0 | 0.00 | 0.17 | 0.00 | 100 | 1010.4 |
| 20260506010811 | 49 | 240 | 0.0 | 4.0 | 0.00 | 0.17 | 0.00 | 100 | 1010.6 |
| 20260506010309 | 49 | 206 | 1.0 | 4.0 | 0.00 | 0.17 | 0.00 | 100 | 1010.6 |
| 20260506005806 | 49 | 163 | 2.0 | 5.0 | 0.00 | 0.17 | 0.00 | 100 | 1010.6 |
| 20260506004802 | 50 | 175 | 3.0 | 9.0 | 0.00 | 0.17 | 0.00 | 100 | 1010.8 |
| 20260506004302 | 50 | 175 | 3.0 | 8.0 | 0.00 | 0.17 | 0.00 | 100 | 1010.8 |
| 20260506003800 | 50 | 211 | 3.0 | 8.0 | 0.00 | 0.17 | 0.00 | 100 | 1010.9 |
| 20260506002757 | 50 | 165 | 4.0 | 9.0 | 0.00 | 0.17 | 0.00 | 100 | 1010.9 |
| 20260506002257 | 50 | 167 | 3.0 | 8.0 | 0.00 | 0.17 | 0.00 | 100 | 1010.9 |
| 20260506001756 | 51 | 163 | 4.0 | 10.0 | 0.00 | 0.17 | 0.00 | 100 | 1010.9 |
| 20260506001255 | 51 | 179 | 3.0 | 11.0 | 0.00 | 0.17 | 0.00 | 100 | 1010.9 |
| 20260506000254 | 52 | 169 | 4.0 | 11.0 | 0.02 | 0.17 | 0.00 | 100 | 1011.1 |
| 20260505235752 | 52 | 165 | 4.0 | 14.0 | 0.02 | 0.17 | 0.00 | 100 | 1011.1 |
| 20260505234749 | 52 | 197 | 5.0 | 14.0 | 0.01 | 0.16 | 0.00 | 100 | 1011.2 |
| 20260505234248 | 52 | 177 | 5.0 | 13.0 | 0.01 | 0.16 | 0.00 | 100 | 1011.4 |
| 20260505233746 | 52 | 161 | 5.0 | 13.0 | 0.00 | 0.15 | 0.00 | 100 | 1011.4 |
| 20260505232745 | 52 | 171 | 3.0 | 10.0 | 0.00 | 0.15 | 0.00 | 100 | 1011.5 |